Location: Cicognara
(44.9500°N, 10.4667°E)
Time: 07:05:45
(UTC+00:00)

Meteor 2-1 Rocket - Pass Details

Date: 20 June 2021
Orbit: 828 x 908 km, 81.3° (Epoch: 29 July)

Event Time Altitude Azimuth Distance (km) Brightness Sun altitude
Rises 22:12:05 0° 350° (N) 3,383 8.9 -19.9°
Reaches altitude 10° 22:14:29 10° 351° (N) 2,449 7.8 -20.0°
Maximum altitude 22:20:02 82° 80° (E) 852 4.1 -20.3°
Enters shadow 22:22:08 40° 163° (SSE) 1,218 4.5 -20.4°
